Location: Newark
(44.3681°N, 100.3364°W)
Time: 07:26:47
(UTC+00:00)

Explorer 7 - Pass Details

Date: 18 February 2020
Orbit: 485 x 679 km, 50.3° (Epoch: 06 April)

Event Time Altitude Azimuth Distance (km) Brightness Sun altitude
Rises 22:33:50 0° 278° (W) 2,838 11.2 15.4°
Reaches altitude 10° 22:36:19 10° 287° (WNW) 1,900 10.2 15.0°
Maximum altitude 22:40:20 36° 355° (N) 891 7.8 14.4°
Drops below altitude 10° 22:44:07 10° 64° (ENE) 1,789 8.9 13.8°
Sets 22:46:25 0° 73° (ENE) 2,648 9.7 13.5°
